When you browse on this site, cookies collect data to enhance your experience and personalize the content and advertising you see.
Visit our Privacy Policy to learn more. By continuing to use the site, you agree to this use of cookies and data.
  • In France
  • List of Countries
  • For 7 days
  • Water Temperature
  • Satellite Maps
  • Weather Map
  • Weather Widgets
  • user-avatar
    Login

    Hourly Weather Punta Gorda

    Today, 22 July, Monday

    Time Temperature Precipitation Wind Pressure Humidity
    00:00 +26°C° 0 mm 3 mps 760 mmHg 95%
    01:00 +26°C° 1.7 mm 3 mps 759 mmHg 96%
    02:00 +26°C° 1.7 mm 3 mps 759 mmHg 96%
    03:00 +26°C° 1.7 mm 3 mps 759 mmHg 97%
    04:00 +26°C° 0.3 mm 3 mps 759 mmHg 97%
    05:00 +26°C° 0.3 mm 3 mps 759 mmHg 97%
    06:00 +26°C° 0.3 mm 2 mps 759 mmHg 97%
    07:00 +28°C° 0.1 mm 2 mps 759 mmHg 92%
    08:00 +29°C° 0.1 mm 2 mps 760 mmHg 87%
    09:00 +30°C° 0.1 mm 2 mps 760 mmHg 83%
    10:00 +31°C° 0 mm 2 mps 760 mmHg 74%
    11:00 +34°C° 0 mm 3 mps 759 mmHg 65%
    12:00 +36°C° 0 mm 3 mps 759 mmHg 56%
    13:00 +36°C° 0 mm 3 mps 758 mmHg 56%
    14:00 +36°C° 0 mm 4 mps 758 mmHg 56%
    15:00 +36°C° 0 mm 4 mps 757 mmHg 56%
    16:00 +34°C° 0 mm 4 mps 757 mmHg 62%
    17:00 +33°C° 0 mm 5 mps 757 mmHg 68%
    18:00 +30°C° 0 mm 5 mps 757 mmHg 75%
    19:00 +29°C° 0 mm 4 mps 758 mmHg 80%
    20:00 +28°C° 0 mm 4 mps 759 mmHg 86%
    21:00 +27°C° 0 mm 3 mps 760 mmHg 91%
    22:00 +27°C° 0.1 mm 3 mps 760 mmHg 93%
    23:00 +26°C° 0.1 mm 3 mps 760 mmHg 94%

    Tomorrow, 23 July, Tuesday

    Time Temperature Precipitation Wind Pressure Humidity
    00:00 +26°C° 0.1 mm 2 mps 760 mmHg 96%
    01:00 +26°C° 0.4 mm 2 mps 759 mmHg 96%
    02:00 +26°C° 0.4 mm 2 mps 759 mmHg 96%
    03:00 +26°C° 0.4 mm 2 mps 759 mmHg 97%
    04:00 +26°C° 0.1 mm 2 mps 759 mmHg 97%
    05:00 +26°C° 0.1 mm 2 mps 759 mmHg 97%
    06:00 +26°C° 0.1 mm 1 mps 759 mmHg 97%
    07:00 +28°C° 0.1 mm 2 mps 759 mmHg 88%
    08:00 +29°C° 0.1 mm 2 mps 760 mmHg 80%
    09:00 +31°C° 0.1 mm 2 mps 760 mmHg 72%
    10:00 +33°C° 0 mm 3 mps 760 mmHg 66%
    11:00 +35°C° 0 mm 3 mps 759 mmHg 60%
    12:00 +36°C° 0 mm 4 mps 759 mmHg 54%
    13:00 +36°C° 0 mm 4 mps 758 mmHg 53%
    14:00 +36°C° 0 mm 5 mps 758 mmHg 53%
    15:00 +36°C° 0 mm 5 mps 757 mmHg 52%
    16:00 +34°C° 0 mm 5 mps 758 mmHg 59%
    17:00 +33°C° 0 mm 5 mps 758 mmHg 66%
    18:00 +30°C° 0 mm 4 mps 758 mmHg 73%
    19:00 +29°C° 0 mm 4 mps 759 mmHg 81%
    20:00 +28°C° 0 mm 4 mps 759 mmHg 88%
    21:00 +26°C° 0 mm 3 mps 760 mmHg 95%
    22:00 +26°C° 0.1 mm 3 mps 760 mmHg 95%
    23:00 +27°C° 0.1 mm 3 mps 760 mmHg 95%

    Day after tomorrow, 24 July, Wednesday

    Time Temperature Precipitation Wind Pressure Humidity
    00:00 +27°C° 0.1 mm 2 mps 760 mmHg 94%
    01:00 +26°C° 0.1 mm 2 mps 760 mmHg 95%
    02:00 +26°C° 0.1 mm 2 mps 759 mmHg 96%
    03:00 +26°C° 0.1 mm 2 mps 759 mmHg 96%
    04:00 +26°C° 0.2 mm 2 mps 759 mmHg 96%
    05:00 +26°C° 0.2 mm 2 mps 760 mmHg 96%
    06:00 +26°C° 0.2 mm 2 mps 760 mmHg 96%
    07:00 +27°C° 0.2 mm 2 mps 760 mmHg 89%
    08:00 +29°C° 0.2 mm 2 mps 760 mmHg 81%
    09:00 +30°C° 0.2 mm 2 mps 760 mmHg 73%
    10:00 +32°C° 0.1 mm 2 mps 760 mmHg 68%
    11:00 +34°C° 0.1 mm 2 mps 759 mmHg 62%
    12:00 +35°C° 0.1 mm 3 mps 759 mmHg 56%
    13:00 +35°C° 0 mm 3 mps 758 mmHg 55%
    14:00 +35°C° 0 mm 4 mps 758 mmHg 54%
    15:00 +35°C° 0 mm 4 mps 757 mmHg 54%
    16:00 +34°C° 0 mm 5 mps 757 mmHg 60%
    17:00 +32°C° 0 mm 5 mps 758 mmHg 67%
    18:00 +30°C° 0 mm 5 mps 758 mmHg 73%
    19:00 +29°C° 0.1 mm 4 mps 759 mmHg 81%
    20:00 +27°C° 0.1 mm 4 mps 759 mmHg 88%
    21:00 +26°C° 0.1 mm 3 mps 760 mmHg 95%
    22:00 +26°C° 0.3 mm 3 mps 760 mmHg 96%
    23:00 +26°C° 0.3 mm 3 mps 760 mmHg 96%

    25 July, Thursday

    Time Temperature Precipitation Wind Pressure Humidity
    00:00 +26°C° 0.3 mm 2 mps 760 mmHg 96%
    01:00 +26°C° 0.4 mm 2 mps 759 mmHg 97%
    02:00 +25°C° 0.4 mm 1 mps 759 mmHg 97%
    03:00 +25°C° 0.4 mm 1 mps 759 mmHg 97%
    04:00 +25°C° 0.1 mm 1 mps 759 mmHg 96%
    05:00 +25°C° 0.1 mm 1 mps 759 mmHg 95%
    06:00 +25°C° 0.1 mm 1 mps 759 mmHg 93%
    07:00 +27°C° 0.1 mm 1 mps 760 mmHg 86%
    08:00 +29°C° 0.1 mm 1 mps 760 mmHg 79%
    09:00 +31°C° 0.1 mm 1 mps 760 mmHg 72%
    10:00 +32°C° 0.1 mm 1 mps 760 mmHg 68%
    11:00 +33°C° 0.1 mm 1 mps 759 mmHg 65%
    12:00 +34°C° 0.1 mm 1 mps 759 mmHg 62%
    13:00 +35°C° 0.1 mm 2 mps 759 mmHg 62%
    14:00 +34°C° 0.1 mm 3 mps 758 mmHg 63%
    15:00 +34°C° 0.1 mm 4 mps 758 mmHg 64%
    16:00 +33°C° 0 mm 5 mps 758 mmHg 68%
    17:00 +32°C° 0 mm 5 mps 758 mmHg 72%
    18:00 +30°C° 0 mm 5 mps 758 mmHg 76%
    19:00 +29°C° 0.2 mm 5 mps 759 mmHg 81%
    20:00 +28°C° 0.2 mm 4 mps 760 mmHg 85%
    21:00 +27°C° 0.2 mm 4 mps 760 mmHg 90%
    22:00 +27°C° 0.7 mm 4 mps 760 mmHg 91%
    23:00 +27°C° 0.7 mm 3 mps 760 mmHg 93%

    26 July, Friday

    Time Temperature Precipitation Wind Pressure Humidity
    00:00 +26°C° 0.7 mm 3 mps 760 mmHg 95%
    01:00 +26°C° 0.6 mm 3 mps 760 mmHg 95%
    02:00 +26°C° 0.6 mm 3 mps 759 mmHg 96%
    03:00 +26°C° 0.6 mm 3 mps 759 mmHg 96%
    04:00 +26°C° 0.6 mm 3 mps 759 mmHg 96%
    05:00 +26°C° 0.6 mm 3 mps 760 mmHg 97%
    06:00 +26°C° 0.6 mm 3 mps 760 mmHg 97%
    07:00 +27°C° 0.2 mm 3 mps 760 mmHg 93%
    08:00 +28°C° 0.2 mm 3 mps 761 mmHg 89%
    09:00 +30°C° 0.2 mm 3 mps 761 mmHg 86%
    10:00 +31°C° 0.1 mm 3 mps 761 mmHg 75%
    11:00 +33°C° 0.1 mm 4 mps 761 mmHg 65%
    12:00 +35°C° 0.1 mm 4 mps 760 mmHg 54%
    13:00 +35°C° 0 mm 5 mps 760 mmHg 53%
    14:00 +35°C° 0 mm 5 mps 759 mmHg 51%
    15:00 +35°C° 0 mm 5 mps 759 mmHg 49%
    16:00 +34°C° 0 mm 5 mps 759 mmHg 56%
    17:00 +32°C° 0 mm 5 mps 759 mmHg 63%
    18:00 +30°C° 0 mm 5 mps 760 mmHg 70%
    19:00 +29°C° 0.1 mm 4 mps 760 mmHg 77%
    20:00 +27°C° 0.1 mm 4 mps 761 mmHg 84%
    21:00 +26°C° 0.1 mm 4 mps 761 mmHg 91%
    22:00 +26°C° 0.5 mm 3 mps 761 mmHg 92%
    23:00 +25°C° 0.5 mm 3 mps 761 mmHg 93%

    27 July, Saturday

    Time Temperature Precipitation Wind Pressure Humidity
    00:00 +25°C° 0.5 mm 3 mps 761 mmHg 94%
    01:00 +25°C° 0.7 mm 2 mps 761 mmHg 95%
    02:00 +25°C° 0.7 mm 2 mps 760 mmHg 95%
    03:00 +25°C° 0.7 mm 2 mps 760 mmHg 95%
    04:00 +25°C° 0.4 mm 2 mps 760 mmHg 95%
    05:00 +25°C° 0.4 mm 1 mps 760 mmHg 96%
    06:00 +25°C° 0.4 mm 1 mps 761 mmHg 96%
    07:00 +26°C° 0.7 mm 1 mps 761 mmHg 93%
    08:00 +27°C° 0.7 mm 1 mps 761 mmHg 91%
    09:00 +29°C° 0.7 mm 2 mps 761 mmHg 88%
    10:00 +29°C° 0.5 mm 2 mps 761 mmHg 82%
    11:00 +30°C° 0.5 mm 3 mps 761 mmHg 76%
    12:00 +31°C° 0.5 mm 3 mps 760 mmHg 70%
    13:00 +33°C° 0.2 mm 3 mps 760 mmHg 65%
    14:00 +33°C° 0.2 mm 4 mps 759 mmHg 61%
    15:00 +34°C° 0.2 mm 4 mps 759 mmHg 56%
    16:00 +33°C° 0.7 mm 4 mps 759 mmHg 63%
    17:00 +32°C° 0.7 mm 4 mps 759 mmHg 69%
    18:00 +29°C° 0.7 mm 5 mps 760 mmHg 75%
    19:00 +28°C° 1.3 mm 4 mps 760 mmHg 81%
    20:00 +27°C° 1.3 mm 4 mps 761 mmHg 88%
    21:00 +26°C° 1.3 mm 4 mps 761 mmHg 94%
    22:00 +26°C° 1.9 mm 3 mps 761 mmHg 95%
    23:00 +26°C° 1.9 mm 3 mps 761 mmHg 95%
    Show more